Theta_e
363 362 360 350 325 321 314 316 324 322 323 329 332 328 321 323 321 312 338 346 350 350 355 358 364 363 361 361 363 362 362 361 362 361 362 361 360 361 361 361 361 362 364 362 362 363 363 363 362
361 357 352 335 316 309 313 322 322 325 328 332 330 329 326 323 331 333 340 349 350 351 355 357 363 364 362 362 362 362 360 360 360 360 361 360 360 359 360 361 361 361 362 362 361 360 361 362 362
357 357 339 323 316 307 310 323 324 327 329 330 329 332 329 325 337 340 346 349 350 351 354 356 365 364 361 361 362 362 359 359 360 359 359 359 359 359 359 359 359 360 361 361 361 360 361 360 358
351 346 338 322 314 318 320 325 331 328 330 334 332 326 333 337 340 344 348 349 349 350 353 361 362 361 361 361 361 361 360 360 360 359 359 359 358 358 359 360 359 359 359 359 359 358 359 359 359
343 335 321 319 318 321 325 331 329 327 329 331 331 326 329 339 346 347 348 348 347 350 354 357 364 364 362 360 360 361 361 360 360 359 359 358 357 357 357 357 358 358 359 358 358 358 358 358 358
329 331 316 310 319 324 326 331 330 328 331 330 329 328 327 342 342 345 348 347 350 352 355 356 362 363 362 360 361 362 361 360 360 359 358 357 356 356 356 356 356 357 358 359 359 358 357 357 356
328 325 318 316 317 322 323 332 326 328 328 328 333 325 330 337 344 348 349 350 351 354 355 355 356 358 362 362 361 361 362 361 360 359 358 358 359 360 360 358 359 360 358 359 359 360 358 358 357
331 327 320 319 317 319 328 329 331 329 327 334 335 325 325 338 346 347 349 350 351 353 354 353 354 354 354 355 363 362 361 360 360 359 360 360 361 360 360 362 361 360 360 360 360 360 360 360 359
334 319 314 317 317 323 329 327 333 335 329 330 333 333 335 342 344 343 343 344 346 349 350 352 352 352 352 353 356 361 362 361 361 359 360 361 352 355 356 359 360 361 362 361 360 361 360 360 361
328 318 319 324 322 322 328 329 330 329 328 328 329 332 336 340 339 337 337 338 341 344 347 348 352 352 351 356 354 350 353 353 352 354 354 354 350 346 356 359 361 362 362 362 361 361 361 360 353
327 321 325 326 328 330 328 327 331 328 324 327 326 328 334 337 337 336 337 339 340 344 346 347 350 351 350 351 351 350 350 352 352 352 352 353 348 346 351 352 354 354 359 354 358 356 355 354 352
321 325 329 329 331 331 327 328 329 328 327 332 331 330 332 334 334 335 337 338 340 342 345 346 347 348 351 351 352 351 349 351 351 352 352 352 349 348 347 350 350 349 349 349 350 351 350 350 348
324 327 331 331 330 329 331 327 330 329 332 333 332 331 328 330 333 335 338 339 340 341 343 344 345 348 350 350 350 352 349 351 351 352 353 351 348 349 348 348 349 347 346 346 347 351 349 349 347
326 327 327 329 332 332 326 328 329 329 332 330 330 327 327 328 328 329 334 335 338 340 341 344 346 348 350 347 346 349 350 349 350 350 352 349 347 348 348 348 349 348 351 350 348 347 347 346 346
327 323 325 326 329 326 328 321 324 329 331 328 328 327 328 328 329 329 331 337 338 339 343 344 344 348 345 344 342 341 341 342 348 347 347 345 345 347 349 349 347 348 350 349 349 348 344 344 347
322 320 315 325 328 329 325 312 325 331 328 325 326 328 329 328 328 329 333 336 336 338 341 343 346 343 342 341 341 340 342 342 343 349 349 347 346 351 349 348 347 349 349 349 349 348 341 342 342
314 307 314 319 327 324 323 318 326 330 326 324 324 326 328 328 326 328 333 334 337 338 340 340 343 340 342 345 345 344 347 349 348 350 350 348 351 354 352 349 348 348 346 346 348 346 340 340 344
306 308 313 313 323 323 322 319 324 327 325 323 323 324 325 325 325 327 332 334 338 339 340 340 342 342 342 348 347 348 350 350 351 350 349 353 354 356 352 352 353 351 346 343 344 343 343 342 341
307 311 311 317 326 322 317 320 323 324 328 326 321 323 323 325 328 328 331 335 338 339 338 338 339 340 345 345 344 343 343 345 351 346 347 346 350 353 352 352 352 350 346 344 343 342 341 342 344
308 310 309 317 325 321 319 317 321 324 325 329 326 323 324 325 327 329 332 335 336 335 336 338 339 340 346 347 342 343 344 347 347 350 348 347 340 345 352 353 351 349 347 345 343 343 341 342 345
302 303 309 312 322 320 317 312 317 326 328 331 331 326 327 326 327 327 330 332 335 335 336 341 340 342 345 343 343 346 350 347 341 341 341 339 339 341 353 354 350 348 347 345 344 345 343 339 342
300 307 313 311 303 298 313 300 312 320 323 327 329 327 328 327 329 328 330 332 334 337 340 344 341 344 346 345 344 344 345 343 340 341 343 341 342 343 350 355 350 349 350 347 346 348 345 343 339
301 306 308 309 302 304 306 302 306 315 315 323 327 326 329 332 330 329 330 334 336 338 341 345 344 346 347 347 346 344 343 344 342 337 340 341 342 342 345 354 352 350 350 347 347 345 344 344 340
307 303 302 306 302 295 302 303 303 310 316 323 327 327 329 331 331 331 332 335 337 340 341 346 345 345 345 346 347 347 346 344 345 343 344 344 342 344 347 352 349 348 349 347 348 346 343 339 337
301 294 290 293 295 297 302 301 305 312 319 325 326 327 328 330 332 332 332 333 336 339 341 345 345 343 344 344 347 347 351 347 349 347 346 343 344 350 351 351 348 347 349 348 346 340 341 336 333
298 295 290 288 293 297 302 299 305 314 316 325 330 330 329 330 332 332 332 334 338 340 342 343 346 344 345 345 344 347 348 352 350 351 350 350 351 352 351 351 350 349 348 344 344 338 340 334 327
296 294 297 293 295 294 299 305 313 319 321 325 328 329 329 330 331 332 333 335 339 341 343 344 345 346 347 348 347 347 348 349 353 355 353 354 341 347 353 350 349 345 345 342 340 337 337 329 324
300 300 293 290 288 291 300 301 305 313 318 321 323 328 329 331 332 333 333 333 339 342 344 346 347 346 349 351 352 351 351 352 352 354 352 351 346 346 354 351 346 346 341 342 338 331 330 326 322
298 296 293 292 292 289 293 300 313 316 321 320 322 327 330 330 331 332 334 334 336 342 343 346 347 347 349 350 352 355 355 355 353 352 352 354 353 353 353 348 345 343 342 342 337 330 328 323 320
300 297 293 290 289 290 294 298 319 318 319 323 322 324 330 332 332 333 334 335 334 337 340 343 348 348 350 353 352 352 356 357 355 354 357 356 353 352 346 343 343 344 342 340 336 332 328 323 320
Wind_Speed
8 6 2 2 0 4 2 3 7 13 4 2 13 6 8 5 2 4 12 11 17 11 10 12 16 17 17 16 16 16 16 16 16 15 16 16 16 16 15 14 14 14 14 14 13 14 14 14 13
1 2 2 3 2 4 1 6 8 11 13 17 11 12 5 5 8 13 10 15 17 13 9 11 16 16 18 17 16 15 16 15 15 14 15 15 15 14 14 13 13 13 12 13 11 12 13 13 12
3 6 2 2 2 2 4 7 14 16 14 11 7 7 5 6 13 11 14 17 15 11 8 12 16 16 17 17 16 15 14 14 14 14 14 13 13 13 13 13 11 11 11 11 10 9 11 10 10
5 1 2 3 3 3 5 10 16 17 10 10 14 8 7 9 10 10 18 18 15 11 7 16 17 18 16 16 16 15 14 14 13 13 12 11 11 11 11 11 10 9 9 9 8 7 8 8 8
3 2 3 3 4 4 17 16 18 18 10 14 16 11 11 10 19 22 20 17 15 11 8 12 16 16 16 15 14 14 13 13 12 11 10 9 8 8 8 8 8 7 7 8 7 6 6 7 5
4 1 3 2 2 4 15 24 11 16 15 16 18 15 5 21 22 19 18 16 17 15 11 11 16 15 15 15 14 13 13 12 11 10 9 8 7 6 6 6 6 7 7 7 7 6 5 5 5
6 2 3 5 10 3 4 14 17 18 18 14 21 11 9 17 20 18 17 15 15 15 13 10 10 13 16 15 14 13 13 12 11 10 9 8 8 7 8 8 9 8 7 8 8 8 7 6 6
3 3 6 4 5 7 4 15 20 21 9 19 18 8 16 20 20 17 16 15 14 12 12 10 8 6 6 7 15 14 13 12 11 10 8 7 7 7 9 8 9 10 9 9 9 8 7 7 6
1 6 1 4 4 5 4 18 10 13 19 19 6 15 22 23 21 17 15 12 12 10 9 10 9 7 6 6 8 12 13 12 11 9 9 7 3 4 6 7 9 10 10 10 8 9 8 8 7
5 3 7 1 3 6 13 13 16 10 19 10 14 14 21 24 22 20 17 14 13 13 11 8 9 9 6 6 5 5 5 4 3 4 5 3 4 4 5 7 11 11 12 11 10 9 9 8 3
2 3 6 14 12 13 12 17 11 23 12 22 21 17 22 25 21 19 17 20 18 15 11 11 9 8 9 6 4 2 2 2 3 5 5 4 3 4 3 3 3 3 9 3 6 5 3 5 4
9 14 19 11 23 15 9 18 8 12 12 21 20 14 19 22 19 19 17 14 15 14 14 13 12 11 9 4 4 4 3 3 3 5 6 4 3 4 4 3 4 4 2 3 3 3 4 4 5
5 16 16 3 5 7 13 10 7 12 19 19 17 12 10 17 18 18 18 16 17 16 14 14 13 12 9 7 4 5 5 4 5 4 6 5 4 5 4 4 4 3 3 4 4 4 4 4 3
6 5 14 6 1 4 1 6 11 13 19 19 16 10 8 11 13 14 16 15 21 17 17 15 14 12 9 6 6 5 5 6 6 5 7 8 5 4 5 4 4 4 3 2 2 1 3 2 3
7 6 4 6 4 3 5 5 3 4 11 18 14 9 10 9 8 10 13 19 19 17 16 17 14 13 9 8 7 5 5 4 7 6 6 6 5 4 5 4 4 3 3 4 3 4 2 3 3
2 3 4 8 10 3 2 5 4 1 11 17 16 14 13 11 9 8 14 16 15 16 15 15 13 13 8 8 6 3 3 4 4 5 5 7 6 5 5 3 3 2 3 4 4 4 3 3 4
3 3 5 5 5 6 7 5 7 6 7 16 16 15 14 14 8 8 15 16 16 18 16 12 10 10 8 6 3 3 2 3 1 4 4 7 6 6 4 2 3 2 2 3 4 3 2 2 2
5 4 3 6 12 10 6 4 6 11 10 15 16 15 13 14 11 9 15 15 16 16 14 12 10 8 8 5 3 1 1 3 1 1 3 3 2 4 3 2 1 2 3 2 3 3 3 3 3
5 5 7 1 10 7 13 3 7 13 9 10 12 15 15 14 12 10 13 17 16 14 12 12 11 7 7 3 3 1 3 2 2 3 5 2 3 1 3 3 4 3 2 2 4 2 3 1 1
7 3 10 5 15 5 4 6 4 11 13 15 15 15 17 9 14 12 15 17 18 17 14 13 12 10 8 6 3 3 3 3 3 4 4 3 1 3 4 4 5 4 3 3 3 2 2 2 2
4 4 5 7 15 1 7 7 3 5 3 10 8 15 16 14 18 14 15 18 17 17 14 14 14 14 9 8 3 3 5 2 2 3 2 1 3 2 2 5 5 5 4 4 4 4 3 2 1
4 2 1 2 4 3 4 4 4 5 13 13 13 13 12 9 19 15 17 17 19 17 15 13 14 14 10 9 5 6 5 4 4 3 4 3 5 3 3 5 6 6 4 5 4 4 3 3 2
7 3 1 2 2 2 2 3 7 5 10 14 17 16 14 10 18 17 19 21 20 17 16 14 14 13 12 12 9 6 5 4 3 5 3 3 4 3 3 5 5 4 3 3 3 2 2 1 2
2 7 9 7 4 3 5 5 7 6 16 11 16 18 20 18 18 16 17 19 18 16 15 14 15 15 12 12 10 10 8 6 4 3 3 4 3 3 4 5 4 2 4 4 3 3 4 4 4
9 8 5 6 7 6 4 2 10 8 10 16 22 21 23 21 12 15 17 18 17 18 17 15 15 15 13 13 12 10 9 10 11 8 6 5 2 2 5 5 3 1 3 4 4 4 4 3 3
4 9 8 5 4 7 3 4 7 8 9 16 19 22 22 22 14 19 19 20 20 20 19 18 17 15 14 13 13 12 11 6 6 8 6 5 5 4 5 5 5 5 5 5 4 3 3 5 4
5 3 8 4 1 1 4 5 4 14 17 5 11 17 21 22 17 19 16 18 19 20 20 20 17 16 15 16 12 11 11 10 10 8 6 6 4 4 6 6 6 6 7 7 7 5 5 5 3
9 5 4 5 1 3 6 3 3 7 7 10 6 15 19 22 20 17 17 16 19 20 20 19 17 19 17 15 12 12 13 12 10 6 7 7 7 6 7 8 7 5 5 5 5 4 5 7 4
7 4 6 6 6 7 2 6 6 13 6 14 11 14 19 20 20 16 16 14 17 18 18 19 16 16 14 14 12 11 10 10 7 8 7 7 6 8 7 7 6 6 6 5 7 5 5 6 5
4 4 5 7 6 2 4 7 14 13 13 7 13 9 17 20 19 15 14 16 13 16 16 17 17 16 16 15 13 14 11 10 10 9 7 8 7 8 13 14 14 7 4 7 11 9 6 7 4
Wind_Direction
182 182 170 219 195 90 291 31 128 103 89 158 148 186 158 113 182 157 140 142 133 137 142 149 139 137 128 124 119 114 107 103 101 104 100 97 98 100 103 105 108 106 107 106 109 113 110 108 108
183 195 341 343 38 78 59 130 92 104 115 112 100 94 79 88 72 114 117 140 136 139 141 145 143 141 135 132 125 120 113 112 112 107 101 100 101 105 105 108 110 112 114 115 118 118 117 116 114
201 248 298 113 312 169 158 132 131 121 152 142 106 88 67 89 110 133 131 135 133 133 132 147 143 140 138 135 130 128 125 120 119 113 111 115 116 118 116 116 115 119 124 123 125 124 122 121 116
191 261 274 358 256 255 47 140 132 133 126 107 116 70 69 138 128 129 136 138 132 132 132 146 150 143 144 140 137 134 134 132 130 128 130 130 127 122 121 120 124 129 129 128 133 135 129 125 123
35 71 313 327 288 52 100 113 123 128 113 103 117 113 113 121 125 135 142 139 132 132 139 144 150 149 146 145 141 143 141 137 139 140 138 141 136 133 133 134 144 145 144 143 153 156 148 144 147
71 123 28 322 314 47 135 146 127 115 119 121 119 125 125 130 135 144 139 140 139 139 143 152 152 154 154 153 149 148 146 148 152 150 154 155 156 156 164 167 170 169 170 169 173 174 180 181 184
102 57 350 317 339 336 132 124 138 124 133 139 136 118 128 142 142 138 134 133 138 144 148 150 154 157 159 157 158 162 157 159 165 169 172 174 176 183 189 187 193 188 183 180 188 193 189 195 202
108 110 17 7 335 287 344 153 144 142 131 131 129 149 155 148 140 131 132 138 141 147 150 153 156 146 152 163 164 164 165 169 174 175 174 177 184 196 196 201 206 202 193 188 193 203 206 206 210
342 46 344 270 286 269 319 124 147 128 135 151 201 147 153 137 131 130 136 136 141 153 164 158 156 154 159 164 174 174 174 179 183 180 192 198 201 225 217 201 211 210 211 206 210 211 216 218 218
46 43 240 240 238 302 275 131 126 122 147 144 127 130 141 141 143 147 153 154 161 163 174 172 161 164 164 175 178 170 182 176 176 188 218 190 207 231 231 224 210 213 217 215 213 213 221 227 224
132 210 256 262 239 202 74 0 131 159 166 153 155 149 144 148 153 155 162 168 170 171 169 175 171 171 176 175 166 161 191 171 188 208 217 199 203 209 228 237 265 219 224 220 216 221 218 213 219
135 195 212 270 225 254 128 174 139 183 174 154 154 156 145 157 157 164 173 163 163 173 178 176 176 176 183 161 168 179 181 190 209 211 204 205 214 216 207 212 225 212 229 231 242 226 223 225 218
194 180 199 126 69 276 139 190 187 143 147 147 149 148 145 163 163 176 171 171 165 172 179 180 179 179 182 172 173 183 194 195 211 211 211 200 210 219 192 204 206 218 198 220 213 223 223 230 218
207 169 170 102 115 25 164 1 110 133 139 144 150 152 173 152 175 165 163 178 169 169 176 177 181 180 171 174 176 199 192 205 203 219 210 208 217 205 183 191 200 216 180 172 143 255 247 242 242
180 191 124 121 169 81 331 42 54 41 154 149 157 165 178 185 191 169 156 165 161 165 166 173 175 182 164 176 187 195 188 204 203 204 193 206 201 186 170 169 200 210 187 162 124 291 257 254 245
173 84 34 133 147 220 86 192 235 126 158 163 169 175 186 211 197 176 156 164 154 156 163 163 165 165 163 166 174 170 163 151 198 202 187 198 195 189 178 194 232 187 218 189 170 194 238 231 224
332 224 177 121 176 184 172 183 214 161 158 178 178 180 192 207 205 169 163 159 159 163 162 158 149 155 162 169 147 175 229 321 244 160 152 201 211 199 173 208 261 137 166 209 171 166 178 227 248
182 275 204 166 195 212 239 213 170 157 162 187 184 184 196 199 200 180 166 153 159 163 164 158 159 159 157 155 139 76 344 286 156 173 127 188 260 260 174 186 342 83 97 103 149 143 186 216 237
246 207 208 218 175 162 223 165 185 158 158 175 198 191 196 195 191 176 158 155 161 161 160 168 159 171 144 137 144 151 211 46 98 59 41 358 107 335 179 171 108 102 115 138 140 138 172 280 232
260 152 277 237 162 153 228 259 149 166 191 184 189 200 196 180 171 176 156 160 166 168 170 171 169 165 166 166 174 163 125 83 180 182 167 195 20 355 190 165 143 143 119 132 148 151 146 215 186
220 202 250 153 175 297 141 311 273 204 171 184 197 199 198 179 175 169 161 168 166 171 169 171 170 170 170 176 157 95 100 112 347 315 347 286 158 229 212 167 149 154 147 168 188 188 180 178 316
351 171 270 41 118 186 177 262 248 227 213 200 194 197 195 165 178 174 166 171 174 180 172 161 165 169 175 174 169 161 172 176 211 207 189 235 213 229 281 191 173 168 166 172 192 199 182 142 179
263 342 42 81 155 103 307 89 269 176 236 211 197 196 194 176 184 183 173 176 183 171 175 168 166 171 175 180 177 176 173 197 188 209 220 254 284 253 286 221 189 181 186 166 184 173 146 86 109
265 41 28 35 62 53 228 135 282 196 218 187 190 189 188 199 189 188 177 176 180 179 173 168 170 183 180 184 178 181 187 171 192 237 259 245 244 254 235 225 173 165 124 152 166 114 92 89 67
68 56 357 346 4 220 222 62 234 257 210 180 189 187 190 195 178 182 177 177 178 180 179 175 178 188 189 190 188 188 194 174 192 189 203 216 223 228 209 177 125 98 123 116 111 100 101 81 82
183 137 152 227 226 266 60 232 263 235 244 193 180 185 183 189 182 187 183 180 179 182 182 183 184 191 193 193 197 195 197 181 198 192 187 207 192 187 169 162 145 150 136 107 109 92 75 72 63
233 183 192 155 154 77 252 323 19 26 15 137 160 170 182 185 182 190 186 181 179 185 187 188 188 193 194 200 196 195 196 196 203 196 184 202 124 185 159 158 137 148 143 148 147 130 124 99 74
147 170 50 9 51 5 333 329 246 18 14 355 151 173 182 183 191 188 188 178 186 186 191 192 191 193 194 195 197 200 196 201 205 180 180 177 166 176 165 150 152 151 130 133 107 102 127 122 117
337 334 63 117 135 159 212 262 211 124 173 265 263 168 178 187 193 191 191 186 181 185 186 193 192 196 198 197 195 193 203 199 185 197 182 182 175 168 143 136 118 145 132 139 107 94 109 88 104
247 248 146 129 251 200 160 270 188 177 199 253 269 185 178 184 189 189 187 187 179 183 184 189 193 195 200 198 193 199 196 193 189 193 184 173 140 89 80 73 38 351 160 158 150 148 152 136 157